Reflectivity
-20 -20 -20 -20 -20 -20 -20 -20 -20 -20 -20 -20 -20 -20 -20 -20 -20 -20 -20 -20 -20 -20 -20 -20 -20 -20 -20 -20 -20 -20 -20 -20 -20 -20 -20 -20 -20 -20 -20 -20 -20 -20 -20
-20 -20 -20 -20 -20 -20 -20 -20 -20 -20 -20 -20 -20 -20 -20 -20 -20 -20 -20 -20 -20 -20 -20 -20 -20 -20 -20 -20 -20 -20 -20 -20 -20 -20 -20 -20 -20 -20 -20 -20 -20 4 -20
-20 -20 -20 -20 -20 -20 -20 -20 -20 -20 -20 -20 -20 -20 -20 -20 -20 -20 -20 -20 -20 -20 -20 -20 -20 -20 -20 -20 -20 -20 -20 -20 -20 -20 -20 -20 -20 -20 -20 -20 -20 -20 -20
-20 -20 -20 -20 -19 -19 -20 -20 -20 -20 -20 -20 -20 -20 -20 -20 -20 -20 -20 -20 -20 -20 -20 -20 -20 -20 -20 -20 -20 -20 -20 -20 -20 -20 -20 -20 -20 -20 -20 -20 -20 -20 -20
-20 -20 -20 -17 -18 -15 -20 -20 -20 -20 -20 -20 -20 -20 -20 -20 -20 -20 -20 -20 -20 -20 -20 -20 -20 -20 -20 -20 -20 -20 -20 -20 -20 -20 -20 -20 -20 -20 -20 -20 -20 -20 -20
18 1 -20 -20 -20 -20 -20 -20 -20 -20 -20 -20 -20 -20 -20 -20 -20 -20 -20 -20 -20 -20 -20 -20 -20 -20 -20 -20 -20 -20 -20 -20 -20 -20 -20 12 -10 -20 -20 -20 -20 -20 -20
-19 -20 -20 -20 -20 -20 -20 -20 -20 -20 -20 -20 -20 -20 -20 -20 -20 -20 -20 -20 -20 -20 -20 -20 -20 -20 -20 -20 -20 -20 -20 -20 -20 -20 -20 -20 -6 13 -20 -20 -20 -20 -20
-20 -20 -20 -20 -20 -20 -20 -20 -20 -20 -20 -20 -20 -20 -20 -20 -20 -20 -20 -20 -20 -20 -20 -20 -20 -20 -20 -20 -20 -20 -20 -18 -20 -20 -20 -20 -20 -20 1 -5 -20 -20 -20
-20 -20 -20 -20 -20 -20 -20 -20 -20 -20 -20 -20 -20 -20 -14 -20 -20 -20 -20 -20 -20 -20 -20 -20 -20 -20 -20 -20 -20 -20 -20 -5 -3 -20 -20 -20 -20 -20 -20 -7 -20 -20 -20
-20 -20 -20 -20 -20 -20 -20 -20 -20 -20 -20 -20 -20 -20 -20 -18 4 -7 -20 -20 -20 -20 -20 -20 -20 -20 -20 -20 -20 -20 -20 -20 -5 -18 -9 -20 -20 -20 -20 -20 14 -20 -20
-20 -20 -20 -20 -20 -20 -20 -20 -20 -20 -20 -20 -20 -20 -20 -20 -19 17 -4 -2 -20 -20 -20 -20 -20 -20 -20 -20 -20 -20 -20 -20 -20 -20 -20 -5 4 -10 -20 -20 9 -12 -20
-20 -20 -20 -20 -20 -20 -20 -20 -20 -20 -20 -20 -20 -20 -20 -12 -20 13 9 0 11 -3 -20 -20 -20 -20 -20 -20 -20 -20 -20 -20 -20 -20 -20 -20 -7 -20 -19 -20 -8 -1 -20
-20 -20 -20 -20 -20 -20 -20 -20 -20 -20 -20 -20 -20 -20 -20 -20 -20 -17 -10 -20 -20 -20 -20 -20 -20 -20 -3 -8 -20 -20 -20 -20 -20 -20 -20 -20 -20 -9 -19 -20 5 -20 -19
-20 -20 -20 -20 -20 -20 -20 -20 -20 -20 -20 -20 -20 -20 -20 -20 -20 -20 -18 -20 -20 -20 -20 -20 -20 -20 -20 -12 -4 -20 -20 -20 -20 -20 -20 -20 -20 -20 8 12 -4 -15 11
-20 -20 -20 -16 -20 -20 -20 -20 -20 -20 -20 -20 -20 -20 -20 -20 -20 -20 -20 -20 -20 -20 -20 -20 -20 -20 -20 -20 -20 -20 -20 -20 -20 -20 -20 -20 -20 -20 -2 6 9 -16 -20
-20 -20 -20 -20 -20 -20 -20 -20 -20 -20 -20 -20 -20 -20 -20 -20 -20 -20 -20 -20 -20 -20 -20 -20 -20 -20 -20 -20 -20 -20 -20 -20 -20 -20 -20 -20 -20 -20 -20 4 14 6 -17
-20 -20 -20 -20 -20 -20 -20 -20 -20 -20 -20 -20 -20 -20 -20 -20 -20 -20 -20 -20 -20 -20 -20 -20 -20 -20 -20 -20 -20 -20 -20 -20 -20 -20 -20 -20 -20 -20 -20 -20 14 20 -14
-20 -20 -20 -20 -20 -20 -20 -20 -20 -20 -20 -20 -20 -20 -20 -20 -20 -20 -20 -20 -20 -20 -20 -20 -20 -20 -20 -20 -20 -20 -20 -20 -20 -20 -20 -20 -20 -20 -20 -14 13 26 -20
-20 -20 -20 -20 -20 -20 -20 -20 -20 -20 -20 -20 -20 -20 -20 -20 -20 -20 -20 -20 -20 -20 -20 5 -13 -20 -20 -20 -20 -20 -20 -20 -20 -20 -20 -20 -20 -20 -20 -20 21 26 31
-20 -20 -11 -18 -20 -20 -20 -20 -20 -20 -20 -20 -20 -20 -20 -20 -20 -20 -12 -20 -20 -14 -16 -20 -13 8 -8 -20 -20 -0 -16 -20 -20 -20 -20 -20 -20 -10 -9 -18 33 32 21
-20 -3 -12 -20 -20 -20 -20 -20 -20 -20 -20 -20 -20 -20 -20 -20 4 -2 2 1 -14 4 11 9 5 6 -7 -20 -3 10 2 -20 -20 -20 -20 -20 -20 -20 -10 8 33 27 24
-20 -20 -20 -20 -20 -20 -20 -20 -20 -20 -20 -20 -20 -20 -20 -20 -20 -1 -1 4 6 10 8 8 -20 -20 -20 -20 -20 -16 -4 -20 -20 -20 -20 -20 -20 -20 -20 22 26 25 7
-20 -20 -20 -20 -20 -20 -20 -20 -20 -20 -20 -20 -20 -20 -20 -20 -20 -20 -20 -15 -20 -20 2 9 -6 -2 6 -20 -19 -17 17 -20 -20 -20 -20 -20 -20 -20 -20 -12 18 -1 11
-20 -20 -20 -20 -20 -20 -20 -20 -20 -20 -20 -20 -20 -20 -20 -20 -10 -5 -6 -1 -20 -20 -20 -20 -19 -20 -20 -20 -20 -20 -20 -20 -20 -20 -20 -12 -20 -20 -20 -20 -10 -2 -13
-20 -20 -20 -20 -20 -20 -20 -20 -20 -20 -20 -20 -20 -20 -3 -19 -20 12 12 10 -20 -20 -18 -13 3 -1 -20 -16 -9 -5 -20 -1 -1 -20 -20 4 -20 -20 -20 -20 -20 -20 -14
-20 -20 -20 -20 -20 -20 -20 -20 -20 -20 -20 -20 -20 -20 -20 1 7 10 8 -5 2 -5 -17 -18 -18 -20 -20 -20 -20 -20 -20 4 -17 -20 -20 -20 -20 -20 -20 -20 -20 -20 -20
Wind_Speed
3 3 3 3 4 4 3 4 4 4 4 5 5 5 5 6 6 4 3 13 14 15 17 18 19 20 19 17 11 11 11 12 12 12 10 9 7 9 10 10 12 13 14
3 4 4 4 4 3 4 4 4 4 5 4 5 6 5 4 5 6 4 6 14 15 17 17 17 18 19 19 18 16 15 14 12 12 12 11 9 8 8 8 10 13 15
6 5 4 4 3 4 5 5 5 4 5 4 5 5 5 5 5 5 4 4 6 13 17 18 19 19 20 20 20 20 18 15 14 14 12 12 11 10 8 8 9 11 15
6 5 4 4 4 4 4 4 4 3 3 3 4 4 4 5 5 5 4 4 4 5 10 18 19 20 20 21 21 22 21 19 17 16 15 13 12 11 9 8 8 9 12
5 6 4 4 4 3 4 3 2 2 3 4 5 5 4 4 3 3 4 4 5 4 4 12 18 17 18 20 21 21 21 21 21 19 17 15 14 12 11 10 8 9 9
5 6 5 5 5 4 4 4 3 2 2 1 5 3 5 4 1 2 2 2 3 4 4 5 6 7 17 18 18 20 21 21 21 21 21 18 16 15 12 9 8 8 9
7 6 4 5 4 5 4 4 1 3 3 4 2 3 4 2 1 2 0 1 3 3 3 3 4 3 6 17 17 17 18 20 19 21 20 22 17 15 14 12 10 8 9
6 6 5 4 4 4 5 5 4 2 2 4 3 3 4 4 3 5 3 2 3 3 4 7 6 6 6 6 9 18 17 16 18 19 19 19 18 18 16 15 12 9 9
5 5 5 5 4 3 3 3 3 5 2 3 5 1 4 3 6 4 5 4 4 3 4 6 7 6 7 7 9 10 15 15 16 18 18 19 18 18 17 16 15 11 10
4 3 3 4 3 1 4 3 3 2 2 2 2 0 2 2 6 8 1 7 6 7 7 5 6 6 6 5 11 14 14 14 14 15 15 17 18 18 18 18 16 13 11
2 1 0 2 3 2 2 3 2 2 0 1 1 2 2 2 4 4 9 7 5 5 6 6 5 6 6 6 6 9 17 10 11 14 14 14 15 16 17 19 17 17 14
3 4 1 4 5 3 1 0 0 2 2 2 2 2 2 3 3 3 4 9 9 4 7 6 6 4 5 5 10 15 16 10 6 10 13 14 13 14 16 17 13 15 16
4 1 2 3 2 2 3 2 2 2 2 2 3 3 3 3 3 2 2 3 2 3 3 3 4 5 4 5 6 13 15 9 6 7 10 12 13 12 14 16 13 15 18
2 4 4 2 1 3 4 4 2 3 3 3 6 4 3 4 2 1 2 3 7 3 5 7 3 4 5 4 7 14 8 12 8 6 8 11 13 12 13 14 13 10 15
2 2 2 2 4 5 7 4 4 5 4 4 5 4 3 3 3 3 1 1 3 8 10 7 6 5 5 6 7 4 5 11 12 6 5 8 11 14 11 15 12 11 11
2 4 7 5 5 6 5 5 4 5 4 4 3 3 3 2 4 3 3 3 3 7 10 7 9 6 7 8 10 5 6 10 10 10 6 6 9 9 14 17 13 8 12
7 8 5 4 4 4 6 5 5 5 5 3 3 3 5 4 4 3 3 4 5 5 10 11 9 9 9 11 9 4 5 5 4 10 7 4 4 7 11 15 14 10 3
6 4 3 4 4 6 6 4 6 3 2 4 5 5 6 6 6 5 4 7 7 7 9 14 11 10 10 9 6 5 6 4 4 7 10 10 4 4 5 10 14 8 8
5 5 4 5 6 6 4 3 1 0 2 5 5 5 7 7 7 6 6 7 7 8 8 9 11 8 8 7 8 5 4 3 3 9 9 9 8 5 3 6 12 11 9
6 5 5 6 5 4 1 3 2 3 5 5 5 6 7 7 8 9 9 9 8 7 8 8 10 9 6 6 4 4 4 2 3 4 8 7 6 4 2 8 9 7 10
5 5 5 5 3 3 3 2 3 5 5 5 5 7 8 12 21 17 10 10 10 8 7 8 9 8 7 6 7 3 4 2 3 3 3 2 2 1 3 6 4 8 6
5 3 3 3 4 4 6 7 6 4 5 7 8 9 9 15 13 18 20 21 17 11 10 8 9 9 9 8 4 5 3 2 2 1 1 2 2 3 1 3 3 3 3
4 4 3 4 5 4 8 8 8 4 5 6 8 9 10 9 14 11 16 20 18 19 12 8 9 9 10 9 8 6 5 3 3 2 1 5 1 2 4 4 6 4 9
1 3 3 4 4 4 9 9 10 4 4 7 8 8 9 11 10 13 12 10 11 11 10 8 9 10 10 10 10 8 7 4 3 4 3 7 1 4 2 3 7 7 3
3 3 3 4 4 3 8 9 8 4 6 8 9 8 10 9 15 21 12 10 11 10 10 16 15 17 17 17 11 5 7 6 6 7 4 4 3 3 1 3 4 8 8
2 4 4 3 4 3 6 8 8 2 4 6 6 8 13 13 19 18 9 9 10 9 11 10 8 9 10 9 12 6 4 4 2 1 4 5 3 2 2 1 2 4 2
Wind_Direction
88 101 87 64 46 24 12 14 30 33 37 20 24 18 7 355 344 339 333 333 334 334 332 329 325 321 317 316 297 274 273 279 285 287 289 288 295 298 306 303 272 248 232
124 86 69 51 44 29 16 30 23 27 30 8 13 7 356 358 358 353 342 340 352 2 5 1 355 347 336 325 319 316 296 280 276 287 294 292 289 291 296 303 297 282 245
73 75 66 43 34 37 32 24 21 21 20 358 8 352 345 343 354 1 359 5 2 27 30 24 16 10 1 348 335 324 313 303 277 282 279 286 286 287 290 297 296 308 272
75 73 73 51 46 49 45 44 25 358 350 1 338 326 330 333 351 15 31 26 19 16 11 13 8 3 358 353 350 339 325 311 301 287 273 271 272 273 279 279 290 295 305
64 92 76 80 86 72 60 47 24 2 330 340 334 321 324 312 5 39 46 42 31 26 9 4 359 355 350 343 339 338 336 326 312 296 286 259 262 265 269 270 279 291 298
42 63 56 43 45 40 34 24 19 304 261 299 298 300 285 287 160 85 7 25 27 23 7 357 345 337 337 334 329 329 327 330 322 313 298 284 259 255 256 260 264 276 287
56 59 58 49 38 59 48 43 354 1 333 337 347 314 301 303 134 59 324 282 6 348 344 336 345 322 320 327 327 323 323 323 327 322 315 308 305 272 242 244 250 268 272
51 73 79 69 57 70 54 41 51 6 321 11 347 274 330 321 1 329 336 341 335 334 331 349 329 320 319 312 312 325 326 326 326 327 319 312 306 305 267 242 240 251 269
77 93 99 96 85 79 98 74 45 57 346 330 6 314 336 296 336 307 326 326 337 324 328 324 308 311 311 313 313 317 322 312 318 323 326 321 310 298 291 270 241 234 252
139 147 104 88 90 90 65 77 74 71 63 359 314 346 180 282 312 307 27 336 330 326 316 304 293 300 297 304 311 314 317 331 335 321 317 323 317 305 287 274 247 239 242
8 45 172 160 125 104 99 92 55 37 116 236 273 315 313 318 260 282 311 317 308 289 298 300 276 290 300 306 304 300 316 319 335 334 329 316 323 320 309 277 246 239 239
252 255 232 30 36 38 261 145 349 357 343 323 321 319 277 275 271 273 289 310 313 309 301 306 305 304 305 300 316 320 315 304 332 344 340 333 320 322 323 308 261 245 241
244 257 153 184 187 231 261 284 278 289 289 274 281 271 259 257 258 239 292 300 286 298 287 272 289 298 307 307 314 330 328 306 323 340 342 338 336 333 329 328 285 253 242
251 191 192 169 315 283 275 245 276 274 265 271 279 277 278 272 262 278 248 303 306 260 288 261 262 270 288 292 303 335 337 326 311 336 354 348 336 341 331 325 322 312 246
290 245 287 226 238 257 267 265 246 266 270 272 271 280 271 292 330 312 313 272 278 297 292 291 278 254 277 294 272 280 305 309 302 292 349 5 4 357 346 332 332 14 322
259 208 219 235 246 267 273 261 269 263 261 277 261 269 285 283 295 290 279 272 256 273 284 291 283 267 273 283 282 274 293 308 319 276 300 349 4 8 1 350 300 356 15
232 238 217 240 266 297 271 255 261 274 270 273 298 290 291 293 286 287 289 282 276 266 278 288 283 285 282 276 265 262 271 286 315 319 279 296 342 346 18 345 324 291 348
258 274 261 271 287 289 268 257 271 299 291 302 291 297 299 305 293 281 279 282 275 269 272 281 283 284 273 272 254 262 278 275 304 299 319 290 244 306 4 2 318 301 280
304 272 279 292 290 279 280 286 232 342 295 282 300 291 292 292 288 286 276 280 277 278 273 275 284 277 276 268 271 261 256 258 280 304 307 338 253 246 353 49 305 259 251
274 274 272 272 275 290 81 98 49 320 305 303 295 288 292 288 288 288 282 283 282 276 282 279 281 276 274 273 247 254 266 248 281 297 296 282 338 239 111 86 315 245 210
292 293 313 313 320 88 68 50 349 327 316 310 310 311 304 297 304 303 301 297 294 283 272 280 279 284 292 291 278 258 239 280 292 259 293 287 323 17 348 83 80 347 152
309 318 5 53 51 51 26 10 28 2 352 337 321 314 308 306 300 311 308 303 297 291 271 268 276 273 276 283 269 282 255 220 279 252 295 286 313 300 300 319 6 82 2
305 347 79 79 64 51 34 10 15 360 341 319 312 310 310 314 315 299 295 293 293 288 284 290 297 285 275 265 270 260 246 226 229 265 296 285 283 272 291 278 284 278 178
312 126 100 81 86 42 16 5 351 337 319 304 302 301 308 303 305 306 302 308 298 289 278 263 262 271 274 274 266 260 261 254 253 254 194 268 269 261 271 271 272 271 248
145 158 137 105 81 32 12 2 352 334 310 307 307 312 310 316 309 322 319 319 321 303 292 288 286 284 286 286 281 239 228 229 247 252 204 245 230 263 254 256 242 237 229
172 135 125 116 93 41 357 351 347 278 294 302 310 312 318 324 326 334 335 330 316 331 325 307 287 281 285 280 276 256 241 267 268 312 216 206 203 209 287 241 284 250 270